Location: Kalisz
(51.7636°N, 18.0893°E)
Time: 04:27:08
(UTC+02:00)

ISS - Pass Details

Date: 29 March 2019
Orbit: 408 x 410 km, 51.6° (Epoch: 20 April)

Event Time Altitude Azimuth Distance (km) Brightness Sun altitude
Rises 20:05:21 0° 274° (W) 2,339 1.2 -16.9°
Reaches altitude 10° 20:07:26 10° 274° (W) 1,477 0.0 -17.2°
Maximum altitude 20:10:45 87° 182° (S) 415 -3.9 -17.6°
Enters shadow 20:11:20 58° 100° (E) 483 -3.8 -17.7°
